Regional Weather Roundup
Issued by NWS San Diego, CA

Home | Current Version | Previous Version | Text Only | Print | Product List | Glossary On
Versions: 1 2 3 4 5 6 7 8 9 10 11 12 13 14 15 16 17 18 19 20 21 22 23 24 25 26 27 28 29 30 31 32 33 34 35 36 37 38 39 40 41 42 43 44 45 46 47 48 49 50
000
ASUS46 KSGX 281603
RWRSGX

SAN DIEGO HOURLY WEATHER ROUNDUP
NATIONAL WEATHER SERVICE SAN DIEGO CA
800 AM PST SUN DEC 28 2014

NOTE: "FAIR" INDICATES FEW OR NO CLOUDS BELOW 12,000 FEET WITH NO
SIGNIFICANT WEATHER AND/OR OBSTRUCTIONS TO VISIBILITY.

CAZ042-043-060-061-PZZ750-775-281700-

GREATER SAN DIEGO AREA

CITY           SKY/WX    TMP DP  RH WIND       PRES   REMARKS
LINDBERGH FLD  PTSUNNY   47  22  37 CALM      30.29R
POINT LOMA       N/A     48  26  43 E3          N/A
CHULA VISTA      N/A     40  28  64 CALM      30.21R
IMPERIAL BEACH SUNNY     47  20  34 E10       30.27R
BROWN FIELD    SUNNY     44  19  36 SE8       30.26R
MIRAMAR MCAS   PTSUNNY   46  21  37 E7        30.26R
MONTGOMERY FLD SUNNY     44  28  53 CALM      30.26R

$$

NORTH SAN DIEGO COUNTY

CITY           SKY/WX    TMP DP  RH WIND       PRES   REMARKS
CAMP PENDLETON CLOUDY    37  25  61 CALM      30.28R
OCEANSIDE AP   CLOUDY    39  25  57 NE3       30.27R
VISTA            N/A     36  28  72 CALM      30.27R
CARLSBAD       PTSUNNY   45  21  38 CALM      30.26R
SAN MARCOS       N/A     46  22  38 E1        30.26R
POWAY            N/A     34  29  80 CALM      30.30R

$$

EAST SAN DIEGO COUNTY

CITY           SKY/WX    TMP DP  RH WIND       PRES   REMARKS
RAMONA         MOSUNNY   33  24  69 CALM      30.25R
SANTEE LAKES     N/A     36  29  75 CALM      30.30R
LA MESA          N/A     42  21  43 E5        30.22R
MT. LAGUNA OBS   N/A     44 -19   6 N5        29.75R
CAMPO            N/A     32  12  43 NE5       30.20R WCI  27

$$

ORANGE COUNTY AND THE LOS ANGELES BASIN

CITY           SKY/WX    TMP DP  RH WIND       PRES   REMARKS
JOHN WAYNE AP  CLOUDY    46  27  47 NE3       30.27R
LAKE FOREST FR   N/A     46  19  33 CALM      30.18R
SANTA ANA        N/A     40  32  71 CALM      30.22R
HUNTINGTON BCH   N/A     42  30  62 N2        30.28R
FULLERTON      CLOUDY    44  27  51 E3        30.26R
LONG BEACH     CLOUDY    43  30  60 NW3       30.27R
L.A. AP        PTSUNNY   47  24  40 NE5       30.27R
L.A. DOWNTOWN  PTSUNNY   46  24  42 CALM      30.26R

$$

THE INLAND EMPIRE

CITY           SKY/WX    TMP DP  RH WIND       PRES   REMARKS
CORONA         CLOUDY    34  29  82 CALM      30.28R
CHINO          PTSUNNY   35  30  82 N3        30.28R
ONTARIO        PTSUNNY   41  26  55 CALM      30.26R
SAN BERNARDINO CLOUDY    34  25  69 CALM      30.26R
RIVERSIDE AP   PTSUNNY   39  23  52 NE3       30.27R
MARCH ARB      PTSUNNY   33  27  77 CALM      30.25R
FRENCH VALLEY  FAIR      34  25  69 CALM      30.26R

$$

SAN BERNARDINO AND RIVERSIDE COUNTY MOUNTAINS

CITY           SKY/WX    TMP DP  RH WIND       PRES   REMARKS
BIG BEAR AP    MOSUNNY   27  12  54 CALM      30.22R

$$

SOUTHERN DESERT INCLUDING THE COACHELLA VALLEY

CITY           SKY/WX    TMP DP  RH WIND       PRES   REMARKS
PALM SPRINGS   MOSUNNY   42  19  39 VRB3      30.31R
THOUSAND PALMS   N/A     37  16  41 W1        30.27R
THERMAL        SUNNY     40  20  44 N5        30.30R
BLYTHE         SUNNY     38  12  34 W9        30.31R WCI  31
IMPERIAL AP    SUNNY     35  17  47 W7        30.30R WCI  29
EL CENTRO NAS  SUNNY     37  13  37 W6        30.30R WCI  32
YUMA AZ        MOSUNNY   44  14  29 NE6       30.29R
MEXICALI       MOSUNNY   41  10  28 W5        30.30

$$

UPPER DESERT

CITY           SKY/WX    TMP DP  RH WIND       PRES   REMARKS
VICTORVILLE AP   N/A     30  18  59 CALM      30.28R
HESPERIA         N/A     31  17  57 W1        30.51R
PALMDALE       MOCLDY    31  21  66 NW3       30.30R
LANCASTER      MOCLDY    29  22  75 CALM      30.31R
EDWARDS AFB    CLOUDY    28  23  82 CALM      30.29R
DAGGETT        CLOUDY    33  15  47 W9        30.30R WCI  25
29 PALMS N     PTSUNNY   31  11  43 W5        30.36R WCI  26
NEEDLES        MOSUNNY   38  13  35 S5        30.31R WCI  34

$$

REGIONAL REPORTS

CITY           SKY/WX    TMP DP  RH WIND       PRES   REMARKS
SANTA BARBARA  PTCLDY    41  37  86 CALM      30.24S
SANDBERG       MOCLDY    35  11  36 NE12      30.22S WCI  27
MT. WILSON       N/A     39 -22   6 MISG        N/A
LAS VEGAS NV   PTSUNNY   37  13  37 S5        30.24R WCI  33
PHOENIX AZ     PTSUNNY   40  22  48 E5        30.27R
TIJUANA        CLOUDY    45  14  29 SE5       30.28R
ENSENADA NW      N/A     50  32  49 E1        30.24S

$$

OFFSHORE ISLANDS

CITY           SKY/WX    TMP DP  RH WIND       PRES   REMARKS
CATALINA ARPT  CLOUDY    49  36  61 NW6       30.26R
SAN NICOLAS IS MOCLDY   N/A N/A N/A NW8       30.26S

$$

MARINE AND OFFSHORE BUOY REPORTS

STATION/POSITION SKY/WX   TEMP    WIND        PRES    SWELL
                          AIR SEA DIR/SP/G            HT/PER/DIR
                          (F)     (DEG/KT/KT) (MB)    (FT/S/D)
TANNER BANKS               59 63  340/  8/ 12 1025.0R   5/300/14
S CLEMENTE BASIN           60 64  340/ 10/ 12 1024.6R   2/290/15
SAN NICOLAS IS.               62                N/A     3/310/14
SO. S. ROSA ISLA           57 59  320/ 10/ 12 1024.2R   5/14
W. S. BARBARA CH           56 61  320/ 14/ 17 1023.8R   5/290/14
S. MONICA BASIN            57 62  320/  4/  8 1024.7R   2/270/12
S PEDRO CHANNEL               63                N/A     2/260/14
DANA POINT                    63                N/A     2/220/14
CMP PENDLETON NS              62                N/A     2/220/14
OCEANSIDE OFFSHR              63                N/A     2/210/13
TORREY PINES OTR              63                N/A     2/250/13
LA JOLLA 1                 50 62  100/  8/  9 1024.8R
MISSION BAY BUOY              63                N/A     2/230/14
SAN DIEGO BAY                 63              1025.4R
POINT LOMA SOUTH              64                N/A     2/260/13

$$



USA.gov is the U.S. government's official web portal to all federal, state and local government web resources and services.